SCP
0 0 0 0 0 0 0 0 -0 0 0 0 0 0 0 0 0 0 0 0 0 0 0 0 0 0 0 0 0 0 0 0 0 0 0 0 0 -0 -0 0 0 0 -0 0
0 0 0 0 0 0 0 0 0 0 0 0 0 0 0 0 0 0 0 0 0 0 0 0 0 0 0 0 0 0 0 0 0 0 0 0 0 0 0 0 0 0 0 0
0 0 0 0 0 0 0 0 0 0 0 0 0 0 0 0 0 0 0 0 0 0 0 0 0 0 0 0 0 0 0 0 0 0 0 0 0 0 0 0 0 0 -0 0
0 0 0 0 0 0 0 0 0 0 0 0 0 0 0 0 0 0 0 0 0 0 0 0 0 0 0 0 0 0 0 0 0 0 0 0 0 0 0 0 0 0 0 -0
0 0 0 0 0 0 0 0 0 0 0 0 0 0 0 0 0 0 0 0 0 0 0 0 0 0 0 0 0 0 0 0 0 0 0 0 0 0 0 0 0 0 0 0
0 0 0 0 -0 0 0 0 0 0 0 0 0 0 0 0 0 0 0 0 0 0 0 0 0 0 0 0 0 0 0 0 0 0 0 0 0 0 0 0 0 0 0 0
0 0 0 0 0 0 0 0 0 0 0 0 0 0 0 0 0 0 0 0 0 0 0 0 0 0 0 0 0 0 0 0 0 0 0 0 0 0 0 0 0 0 0 0
0 0 0 0 0 0 0 0 0 0 0 0 0 0 0 0 0 0 0 0 0 0 0 0 0 0 0 0 0 0 0 0 0 0 0 0 0 0 0 0 0 0 0 0
0 -0 -0 0 0 0 -0 0 -0 0 0 0 0 0 0 0 0 0 0 0 0 0 0 0 0 0 0 0 0 0 0 0 0 0 0 0 0 0 0 0 0 0 0 0
0 -0 -0 0 0 -0 -0 -0 -0 0 0 0 0 0 0 0 0 0 0 0 0 0 0 0 0 0 0 0 0 0 0 0 0 0 0 0 0 0 0 0 0 0 0 0
-0 -0 0 0 0 0 -0 0 0 0 -0 -0 -0 0 0 0 0 0 0 0 0 0 0 0 0 0 0 0 0 0 0 0 0 0 0 0 0 0 0 0 0 0 0 0
-0 -0 0 0 0 0 0 0 0 0 0 0 -0 -0 -0 0 0 0 0 0 0 0 0 0 0 0 0 0 0 0 0 0 0 0 0 0 0 0 0 0 0 0 0 0
0 0 0 0 0 -0 0 0 0 0 0 0 0 0 0 0 0 0 0 0 0 0 0 0 0 0 0 0 0 0 0 0 0 0 0 0 0 0 0 0 0 0 0 0
0 0 0 0 0 0 0 0 0 0 0 0 0 0 0 0 0 0 0 0 0 0 0 0 0 0 0 0 0 0 0 0 0 0 0 0 0 0 0 0 0 0 0 0
0 0 0 0 0 0 0 0 0 0 0 0 0 0 0 0 0 0 0 0 0 0 0 0 0 0 0 0 0 0 0 0 0 0 0 0 0 0 0 0 0 0 0 0
0 0 0 0 0 0 0 0 0 0 0 0 0 0 0 0 0 0 0 0 0 0 0 0 0 0 0 0 0 0 0 0 0 0 0 0 0 0 0 0 0 0 0 0
0 0 0 0 0 0 0 -0 0 0 0 0 -0 0 0 0 0 0 0 0 0 0 0 0 0 0 0 0 0 0 0 0 0 0 0 0 0 0 0 0 0 0 0 0
0 0 0 0 0 0 -0 -0 -0 0 0 0 -0 0 0 0 0 0 0 0 0 0 0 0 0 0 0 0 0 0 0 0 0 0 0 0 0 0 0 0 0 0 0 0
0 0 0 0 0 0 0 0 0 0 0 0 0 0 0 0 0 0 0 0 0 0 0 0 0 0 0 0 0 0 0 0 0 0 0 0 0 0 0 0 0 0 0 0
0 0 0 0 0 0 0 0 0 0 0 0 0 0 0 0 0 0 0 0 0 0 0 0 0 0 0 0 0 0 0 0 0 0 0 0 0 0 0 0 0 0 0 0
-0 0 0 0 0 0 0 0 0 0 0 0 0 0 0 0 0 0 0 0 0 0 0 0 0 0 0 0 0 0 0 0 0 0 0 0 0 0 0 0 0 0 0 0
0 0 0 0 0 0 0 0 0 0 0 0 0 0 0 0 0 0 0 0 0 0 0 0 0 0 0 0 0 0 0 0 0 0 0 0 0 0 0 0 0 0 0 0
0 0 0 0 0 0 0 0 0 0 0 0 0 0 0 0 0 0 0 0 0 0 0 0 0 0 0 0 0 0 0 0 0 0 0 0 0 0 0 0 0 0 0 0
0 0 0 0 0 0 0 0 0 0 0 0 0 0 0 0 0 0 0 0 0 0 0 0 0 0 0 0 0 0 0 0 0 0 0 0 0 0 0 0 0 0 0 0
0 0 0 0 0 0 0 0 0 0 -0 -0 0 0 0 0 0 0 0 0 0 0 0 0 0 0 0 0 0 0 0 0 0 0 0 0 0 0 0 0 0 0 0 0
0 0 0 0 0 -0 -0 0 0 0 0 0 0 0 0 0 0 0 0 0 0 0 0 0 0 0 0 0 0 0 0 0 0 0 0 0 0 0 0 0 0 0 0 0
0 0 0 0 0 -0 -0 0 0 0 0 0 0 0 0 0 0 0 0 0 0 0 0 0 0 0 0 0 0 0 0 0 0 0 0 0 0 0 0 0 0 0 0 0
Wind_Speed_500mb
5 7 5 15 19 9 16 10 15 21 29 35 42 45 59 69 66 60 57 48 37 29 22 17 17 11 6 2 3 3 3 5 11 16 19 24 29 35 40 31 26 33 43 48
15 11 6 10 38 22 15 8 11 38 11 21 38 51 49 47 53 51 43 37 29 22 20 16 9 5 8 2 4 1 5 6 11 14 19 23 26 28 30 32 32 37 51 54
9 7 12 12 27 28 7 23 4 17 12 34 35 45 48 50 53 52 42 35 29 27 21 16 9 5 7 3 2 5 10 10 12 14 17 21 22 24 23 30 36 41 51 56
7 6 6 8 17 19 21 35 28 26 27 35 39 41 49 57 57 46 40 37 31 26 20 14 7 3 6 3 6 11 13 10 12 17 22 13 20 21 25 32 38 44 47 52
6 3 11 11 18 14 16 27 27 28 31 51 64 71 42 43 42 39 35 28 25 20 18 13 7 7 6 7 12 12 8 11 13 25 21 17 19 21 27 33 39 44 48 52
4 5 2 10 7 14 14 10 28 39 27 31 33 13 2 23 26 27 23 20 16 14 12 8 8 12 7 8 10 5 8 15 19 28 21 17 21 22 27 33 37 41 45 48
4 3 5 3 19 13 6 13 10 38 24 12 10 26 33 27 19 14 15 15 15 14 12 12 10 13 10 9 10 9 8 12 17 20 25 19 23 22 26 35 35 38 42 41
5 5 4 11 8 6 8 16 16 20 16 10 19 37 37 27 17 15 14 16 15 15 10 4 7 14 13 12 16 15 18 19 17 19 22 25 29 25 25 35 36 39 41 39
7 8 9 11 16 23 22 17 12 17 15 14 28 25 22 14 11 12 7 21 17 18 14 15 14 14 14 13 18 25 26 30 25 23 22 26 28 28 26 36 40 42 40 36
7 6 2 16 14 17 14 14 15 28 19 14 17 24 28 16 14 18 19 22 17 18 24 24 25 27 24 24 29 31 32 32 30 30 37 38 36 29 28 36 43 39 36 41
4 2 13 20 22 24 24 19 14 13 13 20 20 23 31 21 20 25 26 24 28 29 29 26 23 28 29 35 38 37 39 40 40 37 35 35 29 30 33 34 38 35 39 46
9 18 8 17 10 11 17 15 13 13 13 11 13 22 24 22 22 25 25 20 23 29 26 27 30 33 36 37 41 46 52 48 50 47 39 35 32 31 32 30 30 35 37 38
12 25 22 16 15 14 14 12 18 14 10 12 7 16 14 9 7 20 25 28 32 34 35 29 34 39 40 38 46 54 55 58 57 55 53 50 31 35 35 33 28 37 36 29
25 27 19 20 12 14 13 14 14 13 12 13 11 10 16 12 7 14 16 22 27 31 32 33 37 43 42 43 48 54 55 54 60 63 40 44 31 28 26 29 40 28 28 34
18 14 15 14 12 23 17 17 19 17 17 18 16 14 8 19 19 24 25 25 23 29 37 41 45 43 43 44 39 45 44 35 31 37 49 26 13 23 38 26 26 23 31 25
19 14 15 8 13 21 22 17 12 4 12 17 20 16 11 8 12 19 25 30 27 32 39 41 48 28 29 40 37 32 28 26 24 21 16 22 24 24 17 20 21 30 30 25
30 16 9 9 6 8 3 13 5 2 3 5 1 9 11 11 17 25 24 24 28 24 21 22 18 18 24 35 29 22 21 10 5 5 11 13 5 12 15 20 31 34 21 26
12 10 10 8 4 5 8 8 5 4 4 7 4 5 12 17 26 17 16 20 17 17 15 13 19 22 31 30 18 10 6 2 3 5 6 5 13 15 24 31 40 25 24 30
14 14 13 14 11 11 6 8 11 15 9 9 13 13 11 20 13 19 26 22 16 12 12 19 21 24 24 19 20 17 5 4 11 6 1 9 19 28 36 41 26 25 28 34
15 15 18 18 17 22 17 13 10 9 11 18 19 17 14 12 13 18 22 16 9 13 21 31 26 24 16 15 15 7 13 13 3 10 12 18 32 29 27 26 27 30 31 33
20 16 18 4 9 10 24 22 14 15 14 17 15 17 10 10 7 16 15 7 12 21 26 21 20 17 11 9 4 4 5 2 10 14 21 25 30 25 25 28 33 35 29 30
24 21 15 7 8 15 15 11 13 17 13 8 1 14 9 10 10 12 13 14 13 18 19 12 10 12 11 5 11 8 4 11 15 19 24 30 32 26 25 30 33 36 31 32
27 24 22 14 11 8 17 20 18 13 9 13 15 14 15 18 17 18 19 18 15 20 18 13 12 15 13 11 6 12 7 14 22 30 32 28 30 28 31 33 33 35 36 39
26 18 29 24 14 17 22 13 13 15 12 17 17 10 14 19 21 20 19 15 17 17 13 11 15 17 17 13 9 18 17 19 26 33 26 27 30 33 34 37 34 36 39 42
27 24 24 25 20 21 18 15 14 18 19 18 12 14 14 21 21 19 24 23 21 24 17 9 12 16 15 20 17 18 21 22 25 27 24 27 28 35 36 33 33 38 42 45
34 26 26 26 25 29 24 19 11 13 12 16 6 11 17 17 20 25 30 31 28 30 28 25 18 14 13 15 17 17 20 23 22 24 24 27 35 33 28 32 35 43 45 51
29 23 21 21 21 24 17 16 14 12 13 5 8 12 14 19 27 26 27 29 33 37 35 28 24 24 18 17 20 20 22 22 22 24 27 32 34 25 26 29 35 45 50 60
Wind_Direction_500mb
262 299 336 30 5 246 197 197 170 184 177 182 172 159 153 144 142 141 138 142 147 157 156 169 183 191 197 178 348 35 23 6 358 346 340 341 357 7 11 13 23 21 14 10
307 315 347 71 13 360 16 14 256 168 178 161 140 135 135 137 141 144 149 145 152 157 163 164 175 204 157 104 359 9 320 336 334 330 328 334 352 2 9 21 24 20 18 14
279 266 304 23 356 9 330 6 264 168 189 144 142 142 149 146 145 149 155 160 175 185 181 173 164 142 139 113 322 303 310 304 311 325 329 323 357 1 9 22 20 18 16 12
224 333 212 158 8 357 39 22 21 82 113 121 113 114 137 153 150 156 155 160 168 173 176 181 194 192 159 224 281 293 302 319 336 348 351 339 356 11 9 11 10 9 9 5
85 339 119 3 8 356 348 38 52 66 75 98 100 92 65 127 145 150 158 163 162 170 178 190 244 197 183 258 295 302 344 354 350 358 354 353 2 5 1 360 0 1 1 357
6 81 154 227 254 348 343 6 5 79 50 30 65 73 198 142 141 143 152 165 174 184 189 221 279 171 224 276 333 330 359 355 353 4 350 3 9 5 356 351 350 353 352 352
62 141 294 254 268 311 162 201 134 120 130 152 181 216 192 173 168 169 173 164 174 193 219 258 237 185 230 287 317 344 313 322 328 336 353 352 349 344 336 346 340 336 333 344
43 61 334 314 299 218 163 151 123 124 129 106 133 140 151 156 167 194 208 190 183 209 240 188 172 200 228 274 302 308 326 299 299 310 324 332 321 319 321 339 328 325 322 330
128 209 248 337 78 124 149 161 168 172 150 132 145 162 165 163 171 176 168 185 204 223 237 245 248 251 244 295 298 306 306 313 305 303 291 305 309 306 304 337 328 324 324 324
75 318 343 63 125 137 149 145 151 187 159 149 155 178 191 190 196 210 219 220 214 223 233 244 255 255 270 295 300 296 297 312 304 291 288 293 292 307 313 313 324 317 318 319
45 307 79 113 112 114 127 120 138 133 169 179 175 195 203 211 227 228 236 237 235 245 253 258 267 280 272 277 284 297 302 301 299 293 303 298 292 306 308 318 317 324 323 328
215 206 182 140 135 156 134 138 153 153 173 194 218 206 213 230 241 246 245 255 254 250 261 276 274 273 273 280 288 288 293 295 298 294 290 295 291 299 314 314 321 324 322 321
117 133 134 144 165 163 200 182 169 179 192 206 233 192 192 188 261 246 260 255 258 261 263 265 278 280 283 284 293 287 289 288 291 289 267 277 274 291 309 312 314 322 322 325
131 135 164 189 222 206 195 198 199 215 221 222 243 249 260 233 286 257 264 280 283 279 283 281 287 288 290 291 292 291 289 286 283 284 263 291 262 272 291 315 327 334 335 339
167 170 148 148 147 182 203 220 231 244 264 243 242 224 258 244 252 277 290 277 288 276 268 275 286 289 291 296 306 305 308 286 310 282 289 290 257 271 303 327 322 330 334 331
155 145 157 215 258 253 260 244 291 264 8 191 236 277 306 330 288 289 286 298 300 288 291 290 305 282 313 306 306 305 310 301 291 313 318 303 307 317 328 314 316 327 330 329
168 172 210 258 260 239 335 195 287 161 334 341 284 289 298 308 319 312 313 320 314 306 303 309 322 321 313 319 319 309 306 308 342 0 345 4 17 323 306 310 323 330 330 337
231 247 258 252 254 292 248 210 204 200 353 350 199 244 292 295 326 326 326 334 331 324 307 324 327 312 317 328 341 356 345 350 40 347 29 6 320 301 309 320 327 325 332 331
255 249 248 253 247 233 242 263 292 265 240 230 238 287 307 319 318 330 329 331 344 355 350 329 317 318 322 330 338 345 317 101 120 130 279 307 314 315 319 324 328 328 328 330
242 262 268 258 260 240 223 217 228 234 261 277 294 266 285 306 333 354 340 327 334 335 329 321 315 328 320 320 338 64 115 116 104 2 338 328 339 341 350 344 341 331 324 332
253 247 247 232 221 202 215 220 255 315 340 300 275 254 236 277 295 337 339 318 337 332 322 319 324 329 334 308 333 45 147 284 331 326 324 320 333 343 349 353 350 345 330 332
240 252 234 207 176 172 198 244 288 281 281 10 176 240 244 241 273 309 296 293 301 325 334 334 348 352 346 294 258 232 259 309 313 305 313 318 324 333 337 341 344 348 342 334
246 224 234 218 246 287 295 317 257 279 267 324 301 290 276 253 256 262 277 287 297 328 324 315 334 341 343 334 237 210 257 295 294 291 298 310 318 322 329 333 334 337 338 336
223 230 217 219 242 271 270 322 287 262 288 280 265 283 261 258 249 262 257 272 302 298 305 299 291 309 300 309 280 258 264 295 312 303 306 307 311 315 318 322 317 326 329 334
237 222 223 244 253 274 279 284 265 263 261 254 261 267 254 248 258 250 255 266 275 267 272 280 291 275 292 274 264 272 272 278 293 303 305 307 309 311 314 314 312 319 325 329
222 230 239 245 267 263 264 255 268 202 185 204 238 299 255 259 250 246 245 252 257 260 280 269 261 273 275 266 266 298 274 279 290 297 302 316 314 309 302 303 309 323 324 324
219 223 238 280 274 219 234 238 227 204 192 196 315 329 280 260 236 234 255 243 259 273 274 264 257 266 260 259 261 276 277 277 298 302 307 313 316 314 307 306 308 316 317 318
Wind_Speed_850mb
5 7 5 15 19 9 16 10 15 21 29 35 42 45 59 69 66 60 57 48 37 29 22 17 17 11 6 2 3 3 3 5 11 16 19 24 29 35 40 31 26 33 43 48
15 11 6 10 38 22 15 8 11 38 11 21 38 51 49 47 53 51 43 37 29 22 20 16 9 5 8 2 4 1 5 6 11 14 19 23 26 28 30 32 32 37 51 54
9 7 12 12 27 28 7 23 4 17 12 34 35 45 48 50 53 52 42 35 29 27 21 16 9 5 7 3 2 5 10 10 12 14 17 21 22 24 23 30 36 41 51 56
7 6 6 8 17 19 21 35 28 26 27 35 39 41 49 57 57 46 40 37 31 26 20 14 7 3 6 3 6 11 13 10 12 17 22 13 20 21 25 32 38 44 47 52
6 3 11 11 18 14 16 27 27 28 31 51 64 71 42 43 42 39 35 28 25 20 18 13 7 7 6 7 12 12 8 11 13 25 21 17 19 21 27 33 39 44 48 52
4 5 2 10 7 14 14 10 28 39 27 31 33 13 2 23 26 27 23 20 16 14 12 8 8 12 7 8 10 5 8 15 19 28 21 17 21 22 27 33 37 41 45 48
4 3 5 3 19 13 6 13 10 38 24 12 10 26 33 27 19 14 15 15 15 14 12 12 10 13 10 9 10 9 8 12 17 20 25 19 23 22 26 35 35 38 42 41
5 5 4 11 8 6 8 16 16 20 16 10 19 37 37 27 17 15 14 16 15 15 10 4 7 14 13 12 16 15 18 19 17 19 22 25 29 25 25 35 36 39 41 39
7 8 9 11 16 23 22 17 12 17 15 14 28 25 22 14 11 12 7 21 17 18 14 15 14 14 14 13 18 25 26 30 25 23 22 26 28 28 26 36 40 42 40 36
7 6 2 16 14 17 14 14 15 28 19 14 17 24 28 16 14 18 19 22 17 18 24 24 25 27 24 24 29 31 32 32 30 30 37 38 36 29 28 36 43 39 36 41
4 2 13 20 22 24 24 19 14 13 13 20 20 23 31 21 20 25 26 24 28 29 29 26 23 28 29 35 38 37 39 40 40 37 35 35 29 30 33 34 38 35 39 46
9 18 8 17 10 11 17 15 13 13 13 11 13 22 24 22 22 25 25 20 23 29 26 27 30 33 36 37 41 46 52 48 50 47 39 35 32 31 32 30 30 35 37 38
12 25 22 16 15 14 14 12 18 14 10 12 7 16 14 9 7 20 25 28 32 34 35 29 34 39 40 38 46 54 55 58 57 55 53 50 31 35 35 33 28 37 36 29
25 27 19 20 12 14 13 14 14 13 12 13 11 10 16 12 7 14 16 22 27 31 32 33 37 43 42 43 48 54 55 54 60 63 40 44 31 28 26 29 40 28 28 34
18 14 15 14 12 23 17 17 19 17 17 18 16 14 8 19 19 24 25 25 23 29 37 41 45 43 43 44 39 45 44 35 31 37 49 26 13 23 38 26 26 23 31 25
19 14 15 8 13 21 22 17 12 4 12 17 20 16 11 8 12 19 25 30 27 32 39 41 48 28 29 40 37 32 28 26 24 21 16 22 24 24 17 20 21 30 30 25
30 16 9 9 6 8 3 13 5 2 3 5 1 9 11 11 17 25 24 24 28 24 21 22 18 18 24 35 29 22 21 10 5 5 11 13 5 12 15 20 31 34 21 26
12 10 10 8 4 5 8 8 5 4 4 7 4 5 12 17 26 17 16 20 17 17 15 13 19 22 31 30 18 10 6 2 3 5 6 5 13 15 24 31 40 25 24 30
14 14 13 14 11 11 6 8 11 15 9 9 13 13 11 20 13 19 26 22 16 12 12 19 21 24 24 19 20 17 5 4 11 6 1 9 19 28 36 41 26 25 28 34
15 15 18 18 17 22 17 13 10 9 11 18 19 17 14 12 13 18 22 16 9 13 21 31 26 24 16 15 15 7 13 13 3 10 12 18 32 29 27 26 27 30 31 33
20 16 18 4 9 10 24 22 14 15 14 17 15 17 10 10 7 16 15 7 12 21 26 21 20 17 11 9 4 4 5 2 10 14 21 25 30 25 25 28 33 35 29 30
24 21 15 7 8 15 15 11 13 17 13 8 1 14 9 10 10 12 13 14 13 18 19 12 10 12 11 5 11 8 4 11 15 19 24 30 32 26 25 30 33 36 31 32
27 24 22 14 11 8 17 20 18 13 9 13 15 14 15 18 17 18 19 18 15 20 18 13 12 15 13 11 6 12 7 14 22 30 32 28 30 28 31 33 33 35 36 39
26 18 29 24 14 17 22 13 13 15 12 17 17 10 14 19 21 20 19 15 17 17 13 11 15 17 17 13 9 18 17 19 26 33 26 27 30 33 34 37 34 36 39 42
27 24 24 25 20 21 18 15 14 18 19 18 12 14 14 21 21 19 24 23 21 24 17 9 12 16 15 20 17 18 21 22 25 27 24 27 28 35 36 33 33 38 42 45
34 26 26 26 25 29 24 19 11 13 12 16 6 11 17 17 20 25 30 31 28 30 28 25 18 14 13 15 17 17 20 23 22 24 24 27 35 33 28 32 35 43 45 51
29 23 21 21 21 24 17 16 14 12 13 5 8 12 14 19 27 26 27 29 33 37 35 28 24 24 18 17 20 20 22 22 22 24 27 32 34 25 26 29 35 45 50 60
Wind_Direction_850mb
262 299 336 30 5 246 197 197 170 184 177 182 172 159 153 144 142 141 138 142 147 157 156 169 183 191 197 178 348 35 23 6 358 346 340 341 357 7 11 13 23 21 14 10
307 315 347 71 13 360 16 14 256 168 178 161 140 135 135 137 141 144 149 145 152 157 163 164 175 204 157 104 359 9 320 336 334 330 328 334 352 2 9 21 24 20 18 14
279 266 304 23 356 9 330 6 264 168 189 144 142 142 149 146 145 149 155 160 175 185 181 173 164 142 139 113 322 303 310 304 311 325 329 323 357 1 9 22 20 18 16 12
224 333 212 158 8 357 39 22 21 82 113 121 113 114 137 153 150 156 155 160 168 173 176 181 194 192 159 224 281 293 302 319 336 348 351 339 356 11 9 11 10 9 9 5
85 339 119 3 8 356 348 38 52 66 75 98 100 92 65 127 145 150 158 163 162 170 178 190 244 197 183 258 295 302 344 354 350 358 354 353 2 5 1 360 0 1 1 357
6 81 154 227 254 348 343 6 5 79 50 30 65 73 198 142 141 143 152 165 174 184 189 221 279 171 224 276 333 330 359 355 353 4 350 3 9 5 356 351 350 353 352 352
62 141 294 254 268 311 162 201 134 120 130 152 181 216 192 173 168 169 173 164 174 193 219 258 237 185 230 287 317 344 313 322 328 336 353 352 349 344 336 346 340 336 333 344
43 61 334 314 299 218 163 151 123 124 129 106 133 140 151 156 167 194 208 190 183 209 240 188 172 200 228 274 302 308 326 299 299 310 324 332 321 319 321 339 328 325 322 330
128 209 248 337 78 124 149 161 168 172 150 132 145 162 165 163 171 176 168 185 204 223 237 245 248 251 244 295 298 306 306 313 305 303 291 305 309 306 304 337 328 324 324 324
75 318 343 63 125 137 149 145 151 187 159 149 155 178 191 190 196 210 219 220 214 223 233 244 255 255 270 295 300 296 297 312 304 291 288 293 292 307 313 313 324 317 318 319
45 307 79 113 112 114 127 120 138 133 169 179 175 195 203 211 227 228 236 237 235 245 253 258 267 280 272 277 284 297 302 301 299 293 303 298 292 306 308 318 317 324 323 328
215 206 182 140 135 156 134 138 153 153 173 194 218 206 213 230 241 246 245 255 254 250 261 276 274 273 273 280 288 288 293 295 298 294 290 295 291 299 314 314 321 324 322 321
117 133 134 144 165 163 200 182 169 179 192 206 233 192 192 188 261 246 260 255 258 261 263 265 278 280 283 284 293 287 289 288 291 289 267 277 274 291 309 312 314 322 322 325
131 135 164 189 222 206 195 198 199 215 221 222 243 249 260 233 286 257 264 280 283 279 283 281 287 288 290 291 292 291 289 286 283 284 263 291 262 272 291 315 327 334 335 339
167 170 148 148 147 182 203 220 231 244 264 243 242 224 258 244 252 277 290 277 288 276 268 275 286 289 291 296 306 305 308 286 310 282 289 290 257 271 303 327 322 330 334 331
155 145 157 215 258 253 260 244 291 264 8 191 236 277 306 330 288 289 286 298 300 288 291 290 305 282 313 306 306 305 310 301 291 313 318 303 307 317 328 314 316 327 330 329
168 172 210 258 260 239 335 195 287 161 334 341 284 289 298 308 319 312 313 320 314 306 303 309 322 321 313 319 319 309 306 308 342 0 345 4 17 323 306 310 323 330 330 337
231 247 258 252 254 292 248 210 204 200 353 350 199 244 292 295 326 326 326 334 331 324 307 324 327 312 317 328 341 356 345 350 40 347 29 6 320 301 309 320 327 325 332 331
255 249 248 253 247 233 242 263 292 265 240 230 238 287 307 319 318 330 329 331 344 355 350 329 317 318 322 330 338 345 317 101 120 130 279 307 314 315 319 324 328 328 328 330
242 262 268 258 260 240 223 217 228 234 261 277 294 266 285 306 333 354 340 327 334 335 329 321 315 328 320 320 338 64 115 116 104 2 338 328 339 341 350 344 341 331 324 332
253 247 247 232 221 202 215 220 255 315 340 300 275 254 236 277 295 337 339 318 337 332 322 319 324 329 334 308 333 45 147 284 331 326 324 320 333 343 349 353 350 345 330 332
240 252 234 207 176 172 198 244 288 281 281 10 176 240 244 241 273 309 296 293 301 325 334 334 348 352 346 294 258 232 259 309 313 305 313 318 324 333 337 341 344 348 342 334
246 224 234 218 246 287 295 317 257 279 267 324 301 290 276 253 256 262 277 287 297 328 324 315 334 341 343 334 237 210 257 295 294 291 298 310 318 322 329 333 334 337 338 336
223 230 217 219 242 271 270 322 287 262 288 280 265 283 261 258 249 262 257 272 302 298 305 299 291 309 300 309 280 258 264 295 312 303 306 307 311 315 318 322 317 326 329 334
237 222 223 244 253 274 279 284 265 263 261 254 261 267 254 248 258 250 255 266 275 267 272 280 291 275 292 274 264 272 272 278 293 303 305 307 309 311 314 314 312 319 325 329
222 230 239 245 267 263 264 255 268 202 185 204 238 299 255 259 250 246 245 252 257 260 280 269 261 273 275 266 266 298 274 279 290 297 302 316 314 309 302 303 309 323 324 324
219 223 238 280 274 219 234 238 227 204 192 196 315 329 280 260 236 234 255 243 259 273 274 264 257 266 260 259 261 276 277 277 298 302 307 313 316 314 307 306 308 316 317 318